When you browse on this site, cookies collect data to enhance your experience and personalize the content and advertising you see.
Visit our Privacy Policy to learn more. By continuing to use the site, you agree to this use of cookies and data.
  • In Hungary
  • List of Countries
  • For 7 days
  • Water Temperature
  • Weather Map
  • News
  • Weather Widgets
  • user-avatar
    Login

    Hourly Weather Vegreville

    Today, 11 November, Monday

    Time Temperature Precipitation Wind Pressure Humidity
    00:00 -22°C° 0 mm 3 mps 717 mmHg 89%
    01:00 -22°C° 0 mm 3 mps 717 mmHg 89%
    02:00 -22°C° 0 mm 3 mps 716 mmHg 89%
    03:00 -22°C° 0 mm 3 mps 715 mmHg 89%
    04:00 -22°C° 0 mm 3 mps 714 mmHg 90%
    05:00 -22°C° 0 mm 3 mps 714 mmHg 89%
    06:00 -21°C° 0 mm 3 mps 713 mmHg 88%
    07:00 -21°C° 0 mm 3 mps 712 mmHg 86%
    08:00 -22°C° 0 mm 4 mps 711 mmHg 84%
    09:00 -19°C° 0 mm 4 mps 711 mmHg 82%
    10:00 -17°C° 0 mm 4 mps 710 mmHg 79%
    11:00 -15°C° 0 mm 4 mps 710 mmHg 77%
    12:00 -14°C° 0 mm 4 mps 708 mmHg 78%
    13:00 -12°C° 0 mm 4 mps 707 mmHg 79%
    14:00 -11°C° 0 mm 4 mps 706 mmHg 80%
    15:00 -11°C° 0 mm 4 mps 706 mmHg 81%
    16:00 -12°C° 0 mm 4 mps 705 mmHg 82%
    17:00 -12°C° 0 mm 4 mps 704 mmHg 83%
    18:00 -12°C° 0 mm 4 mps 703 mmHg 83%
    19:00 -12°C° 0 mm 3 mps 703 mmHg 82%
    20:00 -12°C° 0 mm 3 mps 702 mmHg 81%
    21:00 -9°C° 0 mm 3 mps 702 mmHg 80%
    22:00 -8°C° 0 mm 3 mps 701 mmHg 79%
    23:00 -7°C° 0 mm 3 mps 701 mmHg 77%

    Tomorrow, 12 November, Tuesday

    Time Temperature Precipitation Wind Pressure Humidity
    00:00 -6°C° 0 mm 3 mps 701 mmHg 77%
    01:00 -7°C° 0 mm 4 mps 701 mmHg 77%
    02:00 -5°C° 0 mm 4 mps 701 mmHg 77%
    03:00 -5°C° 0 mm 4 mps 701 mmHg 81%
    04:00 -5°C° 0 mm 4 mps 700 mmHg 85%
    05:00 -5°C° 0 mm 4 mps 700 mmHg 90%
    06:00 -5°C° 0 mm 3 mps 700 mmHg 92%
    07:00 -6°C° 0 mm 3 mps 700 mmHg 94%
    08:00 -5°C° 0 mm 2 mps 700 mmHg 96%
    09:00 -5°C° 0 mm 2 mps 700 mmHg 95%
    10:00 -4°C° 0 mm 2 mps 700 mmHg 95%
    11:00 -4°C° 0 mm 2 mps 700 mmHg 94%
    12:00 -4°C° 0 mm 2 mps 700 mmHg 94%
    13:00 -4°C° 0 mm 2 mps 700 mmHg 94%
    14:00 -4°C° 0 mm 2 mps 700 mmHg 94%
    15:00 -5°C° 0 mm 2 mps 700 mmHg 94%
    16:00 -6°C° 0 mm 2 mps 700 mmHg 94%
    17:00 -7°C° 0 mm 2 mps 700 mmHg 94%
    18:00 -8°C° 0 mm 2 mps 701 mmHg 93%
    19:00 -7°C° 0 mm 1 mps 701 mmHg 92%
    20:00 -8°C° 0 mm 1 mps 701 mmHg 91%
    21:00 -8°C° 0 mm 1 mps 701 mmHg 90%
    22:00 -9°C° 0 mm 0 mps 702 mmHg 89%
    23:00 -10°C° 0 mm 0 mps 702 mmHg 88%

    Day after tomorrow, 13 November, Wednesday

    Time Temperature Precipitation Wind Pressure Humidity
    00:00 -10°C° 0 mm 0 mps 702 mmHg 87%
    01:00 -9°C° 0 mm 1 mps 702 mmHg 86%
    02:00 -9°C° 0 mm 1 mps 703 mmHg 86%
    03:00 -8°C° 0 mm 1 mps 703 mmHg 87%
    04:00 -8°C° 0 mm 2 mps 703 mmHg 89%
    05:00 -8°C° 0 mm 2 mps 703 mmHg 91%
    06:00 -6°C° 0 mm 2 mps 703 mmHg 92%
    07:00 -6°C° 0 mm 3 mps 703 mmHg 93%
    08:00 -5°C° 0 mm 3 mps 703 mmHg 95%
    09:00 -4°C° 0 mm 3 mps 703 mmHg 92%
    10:00 -3°C° 0 mm 4 mps 703 mmHg 89%
    11:00 -2°C° 0 mm 4 mps 703 mmHg 87%
    12:00 -1°C° 0 mm 4 mps 703 mmHg 87%
    13:00 -1°C° 0 mm 4 mps 703 mmHg 87%
    14:00 0°C° 0 mm 4 mps 703 mmHg 87%
    15:00 -1°C° 0 mm 4 mps 703 mmHg 87%
    16:00 -2°C° 0 mm 4 mps 702 mmHg 87%
    17:00 -2°C° 0 mm 3 mps 702 mmHg 87%
    18:00 -2°C° 0 mm 3 mps 703 mmHg 87%
    19:00 -2°C° 0 mm 3 mps 703 mmHg 88%
    20:00 -4°C° 0 mm 3 mps 703 mmHg 89%
    21:00 -4°C° 0 mm 3 mps 703 mmHg 89%
    22:00 -4°C° 0 mm 3 mps 704 mmHg 89%
    23:00 -4°C° 0 mm 2 mps 704 mmHg 90%

    14 November, Thursday

    Time Temperature Precipitation Wind Pressure Humidity
    00:00 -4°C° 0 mm 2 mps 704 mmHg 90%
    01:00 -4°C° 0 mm 2 mps 704 mmHg 90%
    02:00 -3°C° 0 mm 1 mps 704 mmHg 90%
    03:00 -3°C° 0 mm 1 mps 704 mmHg 91%
    04:00 -4°C° 0 mm 1 mps 704 mmHg 92%
    05:00 -4°C° 0 mm 1 mps 704 mmHg 92%
    06:00 -4°C° 0 mm 1 mps 704 mmHg 93%
    07:00 -4°C° 0 mm 1 mps 704 mmHg 94%
    08:00 -6°C° 0 mm 2 mps 704 mmHg 96%
    09:00 -5°C° 0 mm 2 mps 704 mmHg 96%
    10:00 -4°C° 0 mm 2 mps 705 mmHg 96%
    11:00 -4°C° 0 mm 3 mps 705 mmHg 96%
    12:00 -4°C° 0 mm 3 mps 704 mmHg 96%
    13:00 -3°C° 0 mm 4 mps 704 mmHg 95%
    14:00 -3°C° 0 mm 4 mps 704 mmHg 95%
    15:00 -3°C° 0 mm 4 mps 704 mmHg 95%
    16:00 -4°C° 0 mm 4 mps 704 mmHg 95%
    17:00 -4°C° 0 mm 4 mps 703 mmHg 95%
    18:00 -4°C° 0 mm 4 mps 703 mmHg 95%
    19:00 -5°C° 0 mm 5 mps 703 mmHg 94%
    20:00 -5°C° 0 mm 5 mps 703 mmHg 94%
    21:00 -5°C° 0 mm 5 mps 703 mmHg 94%
    22:00 -6°C° 0 mm 5 mps 703 mmHg 94%
    23:00 -6°C° 0 mm 5 mps 702 mmHg 94%

    15 November, Friday

    Time Temperature Precipitation Wind Pressure Humidity
    00:00 -6°C° 0 mm 5 mps 702 mmHg 94%
    01:00 -6°C° 0 mm 5 mps 701 mmHg 94%
    02:00 -7°C° 0 mm 5 mps 701 mmHg 94%
    03:00 -7°C° 0 mm 5 mps 700 mmHg 94%
    04:00 -7°C° 0 mm 5 mps 700 mmHg 94%
    05:00 -7°C° 0 mm 5 mps 699 mmHg 94%
    06:00 -7°C° 0 mm 5 mps 699 mmHg 94%
    07:00 -7°C° 0 mm 4 mps 698 mmHg 94%
    08:00 -6°C° 0 mm 3 mps 698 mmHg 94%
    09:00 -6°C° 0 mm 3 mps 698 mmHg 94%
    10:00 -5°C° 0 mm 3 mps 698 mmHg 94%
    11:00 -5°C° 0 mm 3 mps 698 mmHg 94%
    12:00 -3°C° 0 mm 2 mps 698 mmHg 93%
    13:00 -1°C° 0 mm 1 mps 698 mmHg 93%
    14:00 0°C° 0 mm 1 mps 698 mmHg 93%
    15:00 -1°C° 0 mm 1 mps 698 mmHg 93%
    16:00 -2°C° 0 mm 1 mps 698 mmHg 94%
    17:00 -2°C° 0 mm 1 mps 698 mmHg 95%
    18:00 -4°C° 0 mm 2 mps 698 mmHg 94%
    19:00 -4°C° 0 mm 2 mps 698 mmHg 93%
    20:00 -5°C° 0 mm 3 mps 698 mmHg 92%
    21:00 -4°C° 0 mm 3 mps 699 mmHg 90%
    22:00 -3°C° 0 mm 4 mps 699 mmHg 89%
    23:00 -2°C° 0 mm 4 mps 699 mmHg 88%

    16 November, Saturday

    Time Temperature Precipitation Wind Pressure Humidity
    00:00 -2°C° 0 mm 4 mps 700 mmHg 87%
    01:00 -2°C° 0 mm 4 mps 700 mmHg 87%
    02:00 -2°C° 0 mm 4 mps 701 mmHg 86%
    03:00 -3°C° 0 mm 4 mps 701 mmHg 86%
    04:00 -4°C° 0 mm 4 mps 701 mmHg 86%
    05:00 -4°C° 0 mm 4 mps 702 mmHg 87%
    06:00 -4°C° 0 mm 4 mps 702 mmHg 86%
    07:00 -4°C° 0 mm 3 mps 702 mmHg 86%
    08:00 -5°C° 0 mm 3 mps 702 mmHg 86%
    09:00 -4°C° 0 mm 4 mps 703 mmHg 85%
    10:00 -2°C° 0 mm 4 mps 703 mmHg 84%
    11:00 -1°C° 0 mm 4 mps 703 mmHg 83%
    12:00 -1°C° 0 mm 4 mps 703 mmHg 83%
    13:00 -1°C° 0 mm 4 mps 702 mmHg 84%
    14:00 -1°C° 0 mm 4 mps 702 mmHg 84%
    15:00 -1°C° 0 mm 4 mps 702 mmHg 83%
    16:00 -1°C° 0 mm 3 mps 701 mmHg 82%
    17:00 -1°C° 0 mm 3 mps 701 mmHg 81%
    18:00 -1°C° 0 mm 3 mps 700 mmHg 80%
    19:00 -1°C° 0 mm 3 mps 700 mmHg 79%
    20:00 -2°C° 0 mm 3 mps 699 mmHg 78%
    21:00 -2°C° 0 mm 3 mps 699 mmHg 81%
    22:00 -2°C° 0 mm 3 mps 698 mmHg 83%
    23:00 -4°C° 0 mm 3 mps 697 mmHg 85%
    Show more